GEFSSGP_con_prob3kmehi_204.txt.gz
EHI
0 0 0 0 0 0 0 0 0 0 0 0 0 0 0 0 0 0 0 0 0 0 0 0 0 1 0 0 0 0 0 0 0 0 0 0 0 0 0 0 0 0 0 0 0 0 0 0 0
0 0 0 0 0 0 0 0 0 0 0 0 0 0 0 0 0 0 0 0 0 0 0 0 1 2 1 0 0 0 0 0 0 0 0 0 0 0 0 0 0 0 0 0 0 0 0 0 0
0 0 0 0 0 0 0 0 0 0 0 0 0 0 0 0 0 0 0 0 0 0 0 1 2 3 2 0 0 0 0 0 0 0 0 0 0 0 0 0 0 0 0 0 0 0 0 0 0
0 0 0 0 0 0 0 0 0 0 0 0 0 0 0 0 0 0 0 0 0 0 0 1 2 3 2 0 0 0 0 0 0 0 0 0 0 0 0 0 0 0 0 0 0 0 0 0 0
0 0 0 0 0 0 0 0 0 0 0 0 0 0 0 0 0 0 0 0 0 0 0 1 2 2 1 0 0 0 0 0 0 0 0 0 0 0 0 0 0 0 0 0 0 0 0 0 0
0 0 0 0 0 0 0 0 0 0 0 0 0 0 0 0 0 0 0 1 0 0 0 0 1 1 1 0 0 0 0 0 0 0 0 0 0 0 0 0 0 0 0 0 0 0 0 0 0
0 0 0 0 0 0 0 0 0 0 0 0 0 0 0 0 0 0 0 0 0 0 0 0 0 0 0 0 0 0 0 0 0 0 0 0 0 0 0 0 0 0 1 1 0 0 0 0 0
0 0 0 0 0 0 0 0 0 0 0 0 0 0 1 1 1 1 0 0 0 0 0 0 0 0 0 0 0 0 0 0 0 0 0 0 0 0 0 0 0 1 2 2 1 0 0 0 0
0 0 0 0 0 0 0 0 0 0 0 0 0 1 4 6 5 3 1 0 0 0 0 0 0 0 0 0 0 0 0 0 0 0 0 0 0 0 0 0 0 1 2 2 1 0 0 0 0
0 0 0 0 0 0 0 0 0 0 0 0 1 4 10 11 9 6 3 1 1 1 1 0 0 0 0 0 0 1 1 0 0 0 0 0 0 0 0 0 0 1 1 1 0 0 0 0 0
0 0 0 0 0 0 0 0 0 0 0 1 3 8 12 13 11 8 5 3 2 2 2 1 0 0 0 0 1 1 0 0 0 0 0 0 0 0 0 0 0 0 0 0 0 0 0 0 0
0 0 1 2 2 1 0 0 0 0 1 2 6 10 12 12 12 9 7 5 4 4 3 1 0 0 0 0 0 0 0 0 0 0 0 0 0 0 0 0 0 0 0 0 0 0 0 0 0
0 1 3 3 3 2 1 0 0 1 2 3 6 10 12 11 10 9 8 6 5 4 3 1 0 0 0 0 0 0 0 0 0 0 0 0 0 0 0 0 0 0 0 0 0 0 0 0 0
1 2 3 2 1 1 1 1 1 1 2 4 6 8 9 8 8 8 7 5 4 4 2 1 0 0 0 0 0 0 0 0 0 0 0 0 0 0 0 0 0 0 0 0 0 0 0 0 0
0 1 1 0 0 0 1 2 2 1 2 4 5 6 5 6 7 7 6 4 3 3 2 0 0 0 0 0 0 0 0 0 0 0 0 0 0 0 0 0 0 0 0 0 0 0 0 0 0
0 0 0 0 0 0 1 2 1 0 1 3 4 4 5 7 8 8 7 6 4 4 2 1 1 1 0 0 0 0 0 0 0 0 0 0 0 0 0 0 0 0 0 0 0 0 0 0 0
0 0 0 0 0 1 2 2 1 1 2 3 4 5 7 10 10 11 12 9 6 5 4 3 2 2 1 0 0 0 0 0 0 0 0 0 0 0 0 0 0 0 0 0 0 0 0 0 0
0 0 0 0 0 1 2 3 2 2 3 5 6 7 10 12 13 15 15 12 8 5 4 4 5 4 2 1 1 1 1 1 0 0 0 0 0 0 0 0 0 0 0 0 0 0 0 0 0
0 1 1 1 0 1 2 2 2 2 4 6 6 8 11 13 15 16 14 11 8 5 4 4 7 7 5 4 4 3 3 2 0 0 0 0 0 0 0 0 0 0 0 0 0 0 0 0 0
1 1 2 2 1 0 1 1 1 1 2 5 7 9 11 14 16 15 12 9 8 7 6 7 8 8 7 6 6 5 4 2 0 0 0 0 0 0 0 0 0 0 0 0 1 1 1 0 0
0 1 2 4 2 0 0 0 0 0 1 5 7 9 12 14 14 14 12 11 11 11 12 12 11 8 7 7 7 6 4 2 1 0 0 0 0 0 0 0 0 0 0 1 1 2 2 1 1
0 1 2 3 2 0 0 0 0 0 1 4 6 8 10 12 12 13 15 16 17 18 18 17 13 9 7 7 6 5 4 3 1 0 0 0 0 0 0 0 0 0 1 2 2 2 3 3 2
0 1 2 1 0 0 0 0 0 0 1 3 5 6 8 9 10 12 16 18 20 23 23 19 13 9 7 6 5 4 4 3 2 1 0 0 0 0 0 0 1 1 2 4 4 4 3 3 3
0 0 0 0 0 0 0 0 0 0 0 2 5 6 6 7 8 11 14 15 19 23 23 19 14 9 7 6 5 5 5 4 4 3 1 0 0 0 0 1 2 3 4 5 6 5 4 3 3
0 0 0 0 0 0 0 0 0 0 0 1 4 5 6 7 7 10 12 13 18 22 21 18 15 10 8 8 8 7 7 7 7 6 3 1 1 1 1 2 3 4 5 6 6 5 4 3 3
0 0 0 0 0 0 0 0 0 0 0 1 2 5 7 7 7 9 9 11 17 21 21 20 17 13 10 10 10 9 8 9 10 9 6 3 2 2 3 3 3 4 6 6 5 4 3 3 3
0 0 0 0 0 0 0 0 0 0 0 1 3 6 8 8 8 8 7 8 12 18 21 21 19 16 12 11 11 10 10 12 12 11 8 5 4 4 4 4 4 5 6 5 4 3 3 3 3
0 0 0 0 0 0 0 0 0 0 0 1 4 8 10 10 9 8 8 7 8 13 17 19 20 18 14 11 11 12 12 14 14 14 12 9 7 6 6 6 6 7 6 4 3 3 3 3 3
0 0 0 0 0 0 0 0 0 0 0 1 4 8 10 10 9 8 8 9 9 11 14 18 21 20 17 14 15 15 15 15 16 17 17 15 12 10 9 9 9 8 6 4 4 4 3 3 3
0 0 0 0 0 0 0 0 0 0 1 2 4 7 8 8 8 8 9 10 10 12 14 17 21 22 20 18 19 19 18 17 17 19 20 20 17 13 11 11 10 8 5 4 5 5 4 3 3

GEFSSGP_con_prob3kmehi_210.txt.gz
EHI
7 5 3 2 1 0 0 0 0 0 0 0 0 0 0 0 0 0 0 0 0 0 0 0 0 0 0 0 0 0 0 0 0 0 0 0 0 0 0 0 0 1 1 1 0 0 0 0 0
5 3 2 1 0 0 0 0 0 0 0 0 0 0 0 0 0 0 0 0 0 0 0 0 0 0 0 0 0 0 0 0 0 0 0 0 0 0 0 0 0 0 0 0 0 0 0 0 0
3 2 1 0 0 0 0 0 0 0 0 0 0 0 0 0 0 0 0 0 0 0 0 0 0 0 0 0 0 0 0 0 0 0 0 0 0 0 0 0 0 0 0 0 0 0 0 0 0
2 2 1 0 0 0 0 0 0 0 0 0 0 0 0 0 0 0 0 0 0 0 0 0 0 0 0 0 0 0 0 0 0 0 0 0 0 0 0 0 0 0 0 0 0 0 0 0 0
1 1 0 0 0 0 0 0 0 0 0 0 0 0 0 0 0 0 0 0 0 0 0 0 0 0 0 0 0 0 0 0 0 0 0 0 0 0 0 0 0 0 0 0 0 0 0 0 0
0 0 0 0 0 0 0 0 0 0 0 0 0 0 0 0 0 0 0 0 0 0 0 0 0 0 0 0 0 0 0 0 0 0 0 0 0 0 0 0 0 0 0 1 0 0 0 0 0
0 0 0 0 0 0 0 0 0 0 0 0 0 0 1 1 1 0 0 0 0 0 0 0 0 0 0 0 0 0 0 0 0 0 0 0 0 0 0 0 0 0 0 0 0 0 0 0 0
0 0 0 0 0 0 0 0 0 0 0 0 0 0 1 2 2 1 0 0 0 0 0 0 0 0 0 0 0 0 0 0 0 0 0 0 0 0 0 0 0 0 0 0 0 0 0 0 0
0 0 0 0 0 0 0 0 0 0 0 0 0 0 1 2 2 1 0 0 1 1 0 0 0 0 0 0 0 0 0 0 0 0 0 0 0 0 0 0 0 0 0 0 0 0 0 0 0
0 0 0 0 0 0 0 0 0 0 0 0 0 0 1 2 2 2 2 2 2 2 1 0 0 1 1 0 0 0 0 0 0 0 0 0 0 0 0 0 0 0 0 0 0 0 0 0 0
0 0 0 0 0 0 0 0 0 0 0 0 0 0 0 1 2 3 4 5 4 4 2 1 0 1 2 1 0 1 1 1 0 0 0 0 0 0 0 0 0 0 0 0 0 0 0 0 0
1 0 0 0 0 0 0 0 0 0 0 0 0 0 0 0 1 4 6 6 6 6 4 2 1 2 3 2 1 1 2 1 0 1 0 0 0 0 0 0 0 0 0 0 0 0 0 0 0
2 1 0 0 0 0 0 0 1 1 0 1 2 1 1 1 3 5 6 6 7 6 4 2 2 3 4 4 3 2 2 1 0 0 0 0 0 0 0 0 0 0 0 0 0 0 0 0 0
2 1 0 1 0 0 0 1 2 2 2 3 4 3 3 4 7 8 6 5 5 5 3 2 3 5 6 6 4 3 2 2 1 0 0 0 0 0 0 0 0 0 0 1 1 0 0 0 0
2 1 0 0 0 0 0 2 3 3 3 5 6 6 6 7 9 9 7 6 6 5 3 2 3 5 8 8 5 3 2 3 2 1 0 0 0 0 0 0 0 0 1 1 1 1 1 1 1
1 0 0 0 0 0 0 1 3 3 4 6 6 6 7 7 9 10 9 8 8 7 5 3 3 5 9 10 7 3 2 4 3 1 0 0 0 1 1 0 0 1 2 2 1 2 2 2 2
0 0 0 0 0 0 0 1 2 3 4 6 6 6 6 7 8 9 9 8 7 6 4 4 5 8 12 13 9 4 3 4 3 2 1 1 1 2 1 1 1 1 2 2 2 3 3 2 2
0 0 0 0 0 0 0 1 2 3 4 6 6 6 6 7 8 8 8 7 5 5 6 8 10 14 16 15 11 6 4 4 4 3 2 2 3 3 2 2 2 3 3 3 3 3 3 3 2
0 0 0 0 0 0 0 0 2 4 5 6 6 5 6 8 8 7 7 8 7 8 11 13 16 18 17 14 10 7 4 4 4 3 3 3 3 3 3 4 5 4 3 3 3 3 3 3 3
0 0 1 0 0 0 0 0 3 5 6 5 4 4 6 9 9 8 9 11 12 12 15 18 21 21 18 13 10 7 5 5 4 4 4 4 4 5 6 7 7 5 4 3 3 3 3 3 3
0 0 0 0 0 0 0 1 5 7 8 6 4 3 5 8 9 11 12 13 13 14 16 19 23 25 20 15 12 11 9 8 8 7 6 6 7 7 9 10 9 7 5 4 3 3 3 3 3
0 0 0 0 0 0 0 1 4 7 8 7 4 3 4 7 9 10 13 14 13 14 17 21 27 27 23 18 16 15 14 12 10 8 8 8 9 9 11 12 11 9 7 5 4 3 3 3 3
0 0 0 0 0 0 0 0 2 4 6 6 4 5 6 7 8 9 12 15 13 14 17 24 29 30 26 22 20 19 18 15 11 9 9 8 7 8 10 12 13 11 9 6 4 3 4 4 4
0 0 0 0 0 0 0 0 0 1 2 3 7 11 12 11 9 10 13 16 16 15 17 22 29 31 29 25 23 22 20 18 15 13 11 8 6 6 8 10 11 12 10 7 5 5 6 6 6
0 0 0 0 0 0 0 0 1 1 1 2 9 16 18 16 13 11 13 17 18 19 18 21 27 30 29 27 25 24 21 18 17 15 12 9 7 6 7 8 9 10 10 9 7 7 8 8 7
0 0 0 0 0 0 0 1 2 3 3 5 10 17 21 19 16 12 11 15 19 22 21 21 27 30 30 28 27 25 21 16 14 14 11 8 6 7 8 8 8 10 11 10 10 10 9 8 9
0 0 0 0 0 0 0 1 3 5 7 9 13 19 23 21 18 15 12 13 18 22 21 22 28 33 33 32 31 27 22 16 13 12 11 9 9 9 10 10 11 12 12 12 12 11 10 10 11
0 0 0 0 0 0 0 0 2 6 10 14 17 21 23 23 23 21 17 15 17 20 22 24 28 33 35 34 31 27 24 20 16 15 15 15 15 15 14 13 14 15 14 13 13 12 11 12 13
0 0 0 0 0 0 0 0 2 6 10 15 18 20 22 24 27 27 24 21 21 22 26 29 31 32 33 32 29 26 25 23 20 18 18 19 20 20 18 17 17 18 17 15 14 13 13 13 13
0 0 0 0 0 0 0 0 1 5 9 14 18 20 20 23 28 31 30 29 26 25 30 34 34 32 30 30 28 26 24 23 22 20 20 20 21 21 21 21 21 20 19 17 15 15 14 13 13

GEFSSGP_con_prob3kmehi_216.txt.gz
EHI
10 17 28 27 13 2 0 0 0 0 0 0 0 0 0 0 0 0 0 0 2 2 1 0 0 0 0 0 0 0 0 0 0 0 0 0 0 0 0 1 3 3 1 0 0 0 0 0 0
12 21 28 22 8 1 0 0 0 0 0 0 0 0 0 0 0 0 0 0 2 2 2 1 0 0 0 0 0 0 0 0 0 0 0 0 0 0 1 2 3 2 1 0 0 0 0 0 0
19 24 23 11 2 0 0 0 0 0 0 0 0 0 0 0 0 0 0 0 1 3 4 2 0 0 0 0 0 0 0 0 0 0 0 0 0 0 1 2 2 1 1 0 0 0 0 0 0
28 24 13 3 0 0 0 0 0 0 0 0 0 0 0 0 0 0 0 0 1 3 4 2 0 0 0 0 0 0 0 0 0 0 0 0 0 1 2 2 1 0 0 0 0 0 0 0 0
27 18 6 0 0 0 0 0 0 0 0 1 0 0 0 0 0 0 0 0 0 3 5 3 1 0 0 0 0 0 0 0 0 0 0 0 0 1 1 1 0 0 0 0 0 0 0 0 0
16 9 2 0 0 0 0 0 0 0 0 0 0 0 0 1 1 1 0 0 1 3 6 6 3 1 0 0 0 0 0 0 0 0 0 0 0 0 0 0 0 0 0 0 0 0 0 0 0
8 3 0 0 0 0 0 0 0 0 0 0 0 0 0 1 1 1 0 1 1 3 6 6 4 2 1 0 1 1 1 0 0 0 0 0 0 0 0 0 0 0 0 0 0 0 0 0 0
3 1 0 0 0 0 0 0 0 0 0 1 1 1 0 0 0 0 1 2 1 2 3 4 3 3 2 2 2 3 2 1 1 0 0 0 0 0 0 0 0 0 0 0 0 0 0 0 0
1 0 0 0 0 0 0 0 0 0 1 2 3 2 1 1 1 1 2 2 1 1 2 2 1 2 3 3 4 3 3 3 2 1 1 1 0 0 0 0 1 1 1 1 1 2 2 1 1
0 0 0 0 0 0 0 0 0 0 1 3 5 4 3 2 2 3 4 3 1 0 0 0 0 2 4 5 4 3 3 4 4 3 3 2 0 0 0 1 3 4 3 3 4 5 4 3 2
0 0 0 0 0 0 0 0 0 0 1 4 5 4 3 3 3 4 5 4 2 1 0 1 2 5 8 8 5 3 5 5 5 5 3 1 0 0 1 2 4 5 4 3 3 4 4 2 2
0 0 0 0 0 0 0 0 0 0 1 4 4 4 3 4 5 6 6 5 4 3 2 2 4 9 12 11 7 4 5 5 6 7 5 2 0 0 1 2 3 4 3 1 1 1 1 1 1
0 0 0 0 0 0 0 0 0 1 2 3 4 3 3 5 8 9 8 6 5 4 3 3 6 10 13 13 11 7 5 5 6 7 6 4 1 1 1 2 3 3 2 1 1 1 2 2 2
0 0 0 0 0 0 0 0 1 2 3 4 4 4 5 7 11 12 10 7 5 4 3 3 6 12 14 15 15 11 7 7 7 7 6 5 3 3 3 4 3 3 2 2 2 3 5 4 3
0 0 0 0 0 0 0 0 1 3 3 4 5 7 9 11 13 13 12 9 7 6 6 5 7 12 15 15 14 12 9 9 10 9 7 6 7 7 7 5 4 3 3 2 3 4 5 4 4
0 0 0 0 0 0 0 1 2 3 3 5 6 9 15 18 17 15 14 12 11 12 12 9 9 11 14 14 13 12 11 12 13 13 10 8 10 11 11 8 5 4 4 3 3 4 4 4 4
0 0 0 0 0 0 1 3 5 3 3 5 7 11 20 25 23 19 18 17 18 20 21 17 13 14 16 15 13 13 14 15 16 15 13 10 10 12 12 10 8 6 5 4 4 4 4 4 5
0 0 0 0 0 0 1 4 7 4 3 6 9 14 21 27 28 25 23 23 25 28 29 25 19 20 21 19 17 17 19 20 19 17 15 11 11 12 12 11 10 7 6 5 5 5 5 5 4
0 0 0 0 0 0 1 4 8 7 4 5 10 16 22 28 31 30 28 28 33 37 37 31 25 25 26 25 23 22 22 23 23 22 19 15 14 14 13 12 10 9 8 8 7 6 5 4 4
0 0 0 0 0 0 0 2 6 8 6 4 7 15 24 31 37 38 35 36 43 48 44 37 33 32 29 27 25 23 21 23 25 26 24 22 19 17 15 13 12 11 12 12 10 9 7 5 4
0 0 0 0 0 0 0 2 5 8 8 4 4 12 23 32 42 47 44 43 49 51 47 42 41 38 32 26 22 22 23 24 24 27 29 28 24 20 18 17 15 13 14 13 13 12 11 8 6
0 0 0 0 0 0 0 2 6 8 8 6 6 11 20 30 41 49 49 45 45 46 45 45 45 41 34 27 22 23 26 26 25 27 31 32 29 24 22 22 19 17 15 14 14 14 13 11 9
0 0 0 0 0 0 0 2 5 6 8 8 8 12 20 29 38 46 50 48 42 40 44 49 50 45 38 31 26 26 26 25 26 28 31 33 33 29 26 26 26 23 20 18 17 16 16 15 14
0 0 0 0 0 0 0 2 4 4 6 8 8 12 21 31 38 43 49 52 46 40 43 52 55 50 43 36 32 30 27 26 28 31 33 33 34 33 30 29 30 27 23 21 21 21 21 20 18
0 0 0 0 0 0 0 2 3 2 4 7 9 13 23 34 40 41 48 54 48 43 46 52 56 53 46 41 38 34 30 29 31 34 34 31 31 34 34 31 28 25 21 21 23 24 23 22 20
0 0 0 0 0 0 0 2 2 1 2 6 11 18 27 36 41 41 47 51 46 44 50 57 59 54 49 45 42 39 34 31 32 35 33 29 29 33 35 31 26 23 20 19 21 23 22 21 21
0 0 0 0 0 0 1 2 3 2 2 6 14 23 30 35 38 40 45 46 44 46 54 61 60 56 51 48 45 44 40 33 30 33 34 31 30 32 33 31 27 24 21 20 20 21 20 19 19
0 0 0 0 0 0 1 3 4 4 4 6 15 25 31 34 35 38 41 43 44 49 56 61 61 57 53 50 48 48 45 37 31 32 34 35 34 33 32 29 26 23 21 20 21 20 19 17 16
0 0 0 0 0 0 1 2 4 6 6 8 16 26 34 36 35 37 41 44 46 50 56 61 61 58 55 53 51 49 47 42 36 34 35 37 37 35 31 27 24 21 20 19 20 20 18 15 13
0 0 0 0 0 0 1 2 3 4 6 10 18 27 36 39 37 39 43 47 50 51 56 60 62 60 57 55 52 50 47 44 40 37 36 37 37 34 30 26 23 21 18 17 18 19 17 13 11

GEFSSGP_con_prob3kmehi_222.txt.gz
EHI
12 8 4 3 2 1 0 0 0 0 0 0 0 1 1 1 0 1 2 3 3 4 6 9 11 11 9 7 6 6 6 5 4 4 3 3 3 4 4 4 3 3 3 3 3 3 3 4 6
9 7 5 3 1 0 0 0 0 0 0 0 0 0 0 0 0 1 2 3 3 4 6 9 11 12 10 8 6 6 5 4 4 4 3 3 3 4 4 4 3 3 3 3 3 3 3 4 4
8 7 6 3 1 0 0 0 0 0 0 0 0 0 0 0 0 1 3 3 3 3 5 8 12 12 10 8 7 7 5 4 4 3 3 3 4 5 4 4 3 3 3 3 3 3 3 3 3
7 6 5 2 0 0 0 0 0 0 0 0 0 0 0 0 1 2 4 4 3 3 4 7 11 12 10 8 8 8 6 4 3 3 3 3 4 5 4 4 4 3 3 3 3 3 3 3 3
4 3 2 0 0 0 0 0 0 0 0 0 0 0 0 0 2 5 6 4 3 3 3 6 9 11 9 8 7 8 7 5 4 3 3 3 4 5 4 4 4 4 3 3 3 3 3 3 4
3 1 0 0 0 0 0 0 0 0 0 0 0 0 0 1 4 7 8 5 4 4 4 6 8 9 8 6 6 6 7 7 5 4 4 4 4 5 4 3 4 4 4 3 3 3 3 4 5
4 1 0 0 0 0 0 0 0 0 0 0 0 0 1 2 5 7 7 6 5 5 6 6 7 7 6 5 4 4 6 7 6 5 5 5 5 4 3 3 3 4 3 3 3 3 4 5 6
3 1 0 0 0 0 0 1 1 2 1 0 0 0 1 3 4 4 5 5 5 7 7 6 6 6 6 5 4 4 5 6 6 5 5 4 4 3 3 3 4 4 5 5 5 6 7 7 8
1 0 0 0 0 0 1 3 3 3 3 2 0 0 2 4 3 2 2 3 5 6 7 6 6 6 5 5 5 5 5 4 4 4 4 3 3 3 3 4 6 7 7 8 8 10 10 9 7
0 0 0 0 0 1 3 4 5 5 5 4 2 2 4 5 4 2 2 3 4 5 6 6 6 5 4 4 5 4 4 3 3 3 3 3 3 3 3 5 7 8 8 8 8 9 8 5 3
0 0 1 1 1 2 3 4 5 6 5 5 5 5 7 8 7 5 4 4 4 4 4 5 6 5 4 3 4 3 3 3 3 4 3 3 3 3 3 3 5 6 6 5 4 4 3 2 1
0 1 2 2 1 2 3 4 6 7 6 5 6 8 9 10 10 7 6 5 4 4 4 5 6 6 4 3 3 3 3 3 4 4 4 3 3 3 2 1 2 3 2 1 1 1 1 0 0
0 1 2 2 1 1 2 5 8 9 8 7 8 10 11 11 10 8 6 5 5 6 5 6 7 6 4 3 3 3 3 3 3 4 4 3 3 2 1 0 1 2 1 1 1 0 0 1 1
0 0 1 1 0 0 1 5 8 10 9 9 10 13 14 12 10 9 6 4 5 7 7 7 6 5 4 4 4 4 3 3 3 4 4 4 3 2 1 1 2 2 2 2 2 1 1 2 2
0 0 0 0 0 0 0 3 6 8 9 10 12 15 16 13 10 9 7 4 3 5 7 6 5 5 5 5 5 4 2 3 3 3 4 5 4 3 3 3 3 3 3 3 3 3 3 3 3
0 0 0 0 0 0 0 1 4 6 8 10 13 17 17 13 10 7 5 3 3 4 6 7 6 5 5 4 4 3 1 2 4 4 4 5 6 5 5 4 3 3 2 2 2 2 3 3 3
0 0 0 0 0 1 1 1 3 5 8 11 14 17 15 11 7 5 4 4 5 7 8 8 7 5 4 2 2 1 0 2 4 5 5 6 7 6 5 3 2 1 1 1 2 1 2 3 3
0 0 0 1 1 2 2 2 2 4 8 11 14 16 13 9 6 6 7 9 12 13 13 10 8 5 2 1 0 0 1 2 4 6 7 7 7 7 5 3 1 1 1 2 2 2 1 2 2
0 0 1 2 2 2 2 2 2 4 8 12 15 14 13 10 7 9 14 17 19 18 15 12 9 5 2 0 0 0 1 2 3 5 8 8 7 7 6 4 3 3 3 3 3 3 2 1 2
0 0 1 2 2 1 2 2 3 5 8 13 15 14 14 11 10 15 21 24 24 21 18 15 11 7 3 1 1 2 2 2 1 3 6 7 7 7 7 6 5 4 4 3 3 3 3 2 2
0 0 0 1 1 1 1 2 3 5 8 13 15 15 14 13 13 18 26 29 28 25 22 19 14 11 8 6 5 5 5 3 1 2 4 6 6 8 8 7 6 5 5 4 3 3 3 3 3
0 0 0 0 0 0 1 1 2 4 7 11 13 15 15 15 15 20 29 35 34 29 25 22 19 17 14 12 11 9 7 5 3 3 5 6 8 9 9 9 9 8 7 6 5 4 4 3 3
0 0 0 0 0 0 0 0 1 3 5 8 12 17 19 18 17 19 28 37 38 33 30 28 24 21 18 16 14 12 9 6 4 5 8 9 9 9 10 11 11 11 11 9 6 5 5 4 4
0 0 0 0 0 0 0 0 0 1 3 7 14 21 23 22 19 18 24 34 39 39 39 35 29 23 19 17 16 14 13 10 9 10 12 11 10 9 10 12 11 11 11 8 6 5 6 6 6
0 0 0 0 0 0 0 0 0 1 3 8 16 23 26 24 21 18 20 30 39 43 44 40 33 27 23 21 19 18 17 16 16 15 14 13 11 11 12 12 10 9 8 6 4 5 6 6 7
0 0 0 0 0 1 2 1 1 2 4 8 15 23 26 25 22 20 20 28 38 44 45 42 37 32 30 28 25 22 21 21 19 15 14 13 12 12 13 11 8 7 7 6 5 6 6 6 6
0 0 0 0 1 2 3 2 2 3 4 9 16 23 26 27 24 21 21 28 36 41 43 42 40 37 36 34 30 25 21 21 19 15 12 11 10 10 10 8 6 5 6 7 8 8 7 6 6
0 0 0 0 1 2 2 2 2 3 5 9 15 21 26 28 26 22 23 29 33 36 39 41 41 42 41 38 34 27 22 18 17 15 14 11 10 9 8 6 5 5 6 8 9 9 7 6 6
0 0 0 0 0 1 1 1 2 4 5 8 11 17 25 29 27 24 25 28 31 34 37 39 41 44 44 41 36 31 24 19 16 16 16 14 11 10 9 7 5 6 7 9 10 9 7 6 6
0 0 0 0 0 0 0 1 3 5 5 7 9 15 24 30 28 25 26 27 29 34 37 38 41 43 44 42 39 35 27 20 16 15 16 14 11 10 11 9 7 7 9 10 11 9 7 6 6

GEFSSGP_con_prob3kmehi_228.txt.gz
EHI
6 4 2 1 0 0 0 0 0 0 0 0 0 0 0 0 0 0 0 0 0 1 2 3 3 3 4 6 8 9 9 9 9 8 8 7 6 5 5 5 5 4 4 4 5 6 7 7 6
4 3 2 1 0 0 0 0 0 0 0 0 0 0 0 0 0 0 0 0 0 1 3 4 3 3 4 6 7 7 7 7 7 7 6 5 5 4 4 4 5 5 4 4 5 5 6 6 6
3 2 1 0 0 0 0 0 0 0 0 0 0 0 1 2 1 0 0 0 0 1 2 4 5 4 5 6 6 6 7 7 6 5 4 3 4 4 4 3 4 5 5 4 4 5 6 6 5
2 1 0 0 0 0 0 0 0 0 0 0 0 0 2 3 2 1 0 0 0 0 1 4 6 6 6 7 7 7 7 7 6 4 3 3 3 4 3 3 3 4 4 3 4 5 5 5 4
1 0 0 0 0 0 0 0 0 0 0 0 0 0 1 3 2 1 0 0 0 0 0 3 6 7 7 8 9 8 7 5 4 3 3 3 3 3 3 3 3 3 3 3 3 4 4 4 4
0 0 0 0 0 0 0 0 0 0 0 0 0 0 1 2 2 1 0 0 0 0 0 1 4 6 8 9 9 9 7 5 4 3 3 3 3 3 3 3 2 1 1 3 3 3 3 3 3
0 0 0 0 0 0 0 0 0 0 0 0 0 0 1 2 1 0 0 0 0 0 0 0 2 3 6 7 7 7 7 6 4 3 3 3 3 3 3 2 1 1 2 3 4 3 3 3 3
0 0 0 0 0 0 0 0 0 0 0 0 0 0 1 1 1 1 1 1 1 0 0 0 0 1 2 3 4 5 5 5 4 3 3 3 3 3 2 1 1 1 3 5 5 4 3 3 3
0 0 0 0 0 0 0 0 0 0 0 0 0 1 2 3 3 3 2 2 2 1 0 0 0 0 0 1 2 2 3 3 3 2 2 2 2 1 1 1 2 3 4 5 5 5 4 4 4
0 0 0 0 0 0 0 0 0 0 0 0 0 2 4 4 5 4 4 3 3 2 1 1 0 0 0 0 1 1 1 1 1 1 1 1 1 0 0 1 2 3 4 4 5 5 4 4 3
0 0 0 0 0 0 0 0 0 0 0 0 0 2 3 4 5 5 5 4 3 3 2 2 1 0 0 0 0 0 0 0 0 0 0 0 0 0 0 1 2 2 2 2 3 3 2 1 1
0 0 0 0 0 0 0 0 0 0 0 1 1 3 3 2 3 4 5 4 3 2 2 2 2 1 0 0 0 0 0 0 0 0 0 0 0 0 0 0 0 0 0 0 1 1 0 1 1
0 0 0 0 0 0 0 0 0 0 1 3 5 6 4 3 3 4 4 3 2 1 0 1 1 1 0 0 0 0 0 0 0 0 0 0 0 0 0 0 0 0 0 0 0 0 0 1 2
0 0 0 0 0 0 0 0 0 1 3 5 8 9 6 4 4 4 3 1 1 0 0 0 0 0 0 0 0 0 0 0 0 0 0 0 0 0 0 0 0 0 0 0 0 0 0 1 1
0 0 0 0 0 0 0 0 1 3 5 7 10 9 5 3 3 4 3 1 0 0 1 1 1 0 0 0 0 0 0 0 0 0 0 0 0 0 0 0 0 0 0 0 0 0 0 0 0
0 0 0 0 0 0 0 0 1 3 6 7 8 7 3 1 1 2 2 1 0 1 3 4 2 1 0 0 0 0 0 0 0 0 0 0 0 0 0 0 0 0 0 0 0 1 1 1 1
0 0 0 0 0 0 0 1 2 4 6 7 7 5 2 0 0 1 1 1 1 3 5 5 3 1 0 0 0 0 0 0 0 0 0 0 0 0 0 0 0 0 0 0 0 1 2 2 2
0 0 0 0 0 0 1 2 3 5 6 6 7 5 1 0 0 1 2 2 3 4 6 5 2 0 0 0 0 0 0 0 0 0 0 0 0 0 0 0 0 0 0 0 0 1 1 2 2
0 0 0 0 0 1 2 2 3 4 5 7 8 5 2 0 0 1 3 5 6 6 6 4 2 1 0 0 0 0 0 0 0 0 0 0 1 1 0 0 0 0 0 0 0 0 0 1 1
0 0 0 0 0 1 2 2 2 2 4 6 7 5 1 0 0 1 4 7 8 7 6 5 3 2 1 0 0 0 0 0 0 0 0 1 2 2 1 1 1 1 0 0 0 1 1 1 2
0 0 0 0 0 1 2 2 1 1 2 4 6 3 1 0 0 3 7 9 8 8 8 6 4 2 1 0 0 0 0 0 0 0 0 1 2 3 3 2 2 2 1 1 1 1 2 3 3
0 0 0 0 0 0 1 1 0 0 1 3 5 3 1 0 0 4 9 11 9 8 8 5 3 2 1 0 0 0 0 0 0 0 0 0 1 2 3 3 3 3 3 2 1 1 2 3 3
0 0 0 0 0 0 0 0 0 0 0 2 4 4 1 0 1 4 9 10 8 8 8 5 2 1 0 0 0 1 1 0 0 0 0 0 0 1 1 2 3 3 3 3 2 1 1 1 2
0 0 0 0 0 0 0 0 0 0 0 1 4 4 1 0 1 4 7 7 7 9 10 6 2 0 0 0 1 2 2 1 1 1 0 1 1 0 0 1 2 2 2 2 1 0 0 0 1
0 0 0 0 0 0 0 0 0 0 0 1 4 4 1 0 1 4 6 6 7 11 13 10 5 2 2 2 2 3 4 4 3 2 1 1 1 0 0 0 1 1 1 1 0 0 0 1 1
0 0 0 0 0 0 0 0 0 0 0 1 4 4 2 0 2 4 4 4 7 12 17 15 10 7 6 6 5 4 5 5 4 3 2 1 1 0 0 0 0 0 0 0 0 0 1 2 2
0 0 0 0 0 0 0 0 0 0 1 2 3 4 3 1 2 3 3 3 5 11 16 16 12 11 11 10 8 6 6 5 4 2 1 0 0 0 0 1 1 2 1 1 1 1 1 2 3
0 0 0 0 0 0 0 0 0 0 1 2 2 2 3 3 2 2 2 3 4 8 13 14 12 12 13 13 11 9 7 6 5 3 1 1 1 1 2 2 3 4 4 3 2 2 2 2 3
0 0 0 0 0 0 0 0 0 1 2 2 1 1 3 5 5 4 3 2 3 7 11 13 13 13 14 15 15 13 11 9 7 6 4 4 4 4 4 4 5 5 5 4 3 3 3 3 3
0 0 0 0 0 0 0 0 0 1 2 2 1 1 3 6 8 6 3 3 4 6 12 15 14 13 14 17 19 18 14 11 9 8 8 8 8 7 6 5 6 5 4 3 3 3 3 3 3

GEFSSGP_con_prob3kmehi_234.txt.gz
EHI
9 7 6 4 1 0 0 0 0 0 0 0 0 0 0 0 0 0 0 0 0 0 0 0 0 0 0 0 0 0 1 2 2 1 0 0 0 0 0 0 0 0 0 0 1 1 2 2 3
8 8 6 3 0 0 0 0 0 0 0 0 0 0 0 0 0 0 0 0 0 0 0 0 0 0 0 0 0 0 0 1 1 1 0 0 0 0 0 0 0 0 0 0 0 1 2 2 2
8 8 4 1 0 0 0 0 0 0 0 0 0 0 0 0 0 0 0 0 0 0 0 0 0 0 0 0 0 0 0 0 0 0 0 0 0 0 0 0 0 0 0 0 0 1 2 2 1
8 7 3 0 0 0 0 0 0 0 0 0 0 0 0 0 0 0 0 0 0 0 0 0 0 0 0 0 0 0 0 0 0 0 0 0 0 0 0 0 0 0 0 0 0 1 2 1 1
6 4 1 0 0 0 0 0 0 0 0 0 0 0 0 0 0 0 0 0 0 0 0 0 0 0 0 0 0 0 0 0 0 0 0 0 0 0 0 0 0 0 0 0 0 1 1 1 1
3 1 0 0 0 0 0 0 0 0 0 0 0 0 0 0 0 0 0 0 0 0 0 0 0 1 1 0 0 0 0 0 0 0 0 0 0 0 0 0 0 1 1 1 1 1 1 1 1
1 0 0 0 0 0 0 0 0 0 0 0 0 0 0 0 0 0 0 0 0 0 0 0 0 1 1 1 1 1 0 0 0 0 0 0 1 1 1 1 1 2 2 2 2 2 2 2 2
0 0 0 0 0 0 0 0 0 0 0 0 0 0 0 0 0 1 1 1 0 0 0 0 0 1 1 1 1 2 1 1 1 0 0 1 1 2 2 1 1 2 3 3 3 3 3 3 3
0 0 0 0 0 0 0 0 0 0 0 0 0 0 0 0 1 2 3 3 1 0 0 0 0 0 0 0 1 2 2 1 1 1 1 1 1 2 2 1 1 3 3 3 3 3 3 3 3
0 0 0 0 0 0 0 0 0 0 0 0 0 0 0 1 1 2 3 3 2 1 0 0 0 0 0 0 0 1 1 0 0 0 0 1 1 2 2 2 2 3 3 3 3 3 3 3 3
0 0 0 0 0 0 0 0 0 0 0 0 0 0 1 1 1 2 3 3 3 2 1 0 0 0 0 0 0 0 1 1 1 1 1 1 2 3 3 3 3 3 3 3 3 3 3 3 3
0 0 0 0 0 0 0 0 0 0 1 1 1 1 2 2 2 3 3 3 3 2 1 0 0 0 1 1 0 1 2 2 2 2 2 3 3 3 3 3 2 2 2 2 3 3 3 3 4
0 0 0 0 0 0 0 0 0 1 3 4 3 4 4 4 3 3 3 2 2 1 1 0 0 1 2 2 1 2 3 3 2 2 3 3 3 3 3 3 2 2 3 3 3 3 3 4 5
0 0 0 0 0 0 0 0 1 2 5 6 6 6 5 3 3 2 1 1 1 0 0 1 2 3 3 3 2 2 2 1 1 1 2 3 3 3 3 3 3 3 3 3 2 3 3 4 3
0 0 0 0 0 0 0 1 2 4 6 8 7 6 4 2 1 1 0 0 0 0 1 2 4 5 4 3 3 2 1 0 1 2 2 2 2 2 3 3 3 3 2 1 1 2 3 2 1
0 0 0 0 0 0 0 1 3 4 7 8 7 5 3 1 0 0 0 0 0 2 3 4 4 3 3 3 3 3 1 0 1 2 2 1 1 1 1 2 2 1 1 0 0 1 2 1 1
0 0 0 0 0 0 1 3 4 4 5 6 6 4 2 0 0 0 0 0 2 4 5 5 4 2 1 2 3 3 2 1 0 1 1 0 0 0 0 1 1 0 0 0 1 2 1 1 1
0 0 0 0 0 0 1 3 4 4 3 5 6 4 1 0 0 0 0 1 3 5 6 6 5 2 1 1 2 3 3 2 1 0 0 0 0 1 1 0 1 1 0 0 1 1 1 0 1
0 0 0 0 0 1 2 3 4 3 3 4 6 5 3 1 0 0 1 1 4 6 7 6 5 4 1 1 2 3 3 1 1 1 0 0 1 2 2 2 2 2 1 1 1 0 0 0 0
0 0 0 0 0 1 2 3 3 3 3 3 5 6 4 2 1 1 2 3 5 8 8 7 6 5 3 2 2 3 2 0 0 0 0 0 1 3 3 4 4 4 4 3 2 2 1 1 0
0 0 0 0 0 1 2 3 3 3 3 3 5 5 4 2 1 1 2 5 8 9 9 8 8 6 4 3 3 3 2 1 0 0 0 0 1 2 4 5 6 6 6 5 5 5 4 3 2
0 0 0 0 0 0 1 1 2 2 2 5 7 7 5 3 1 0 2 5 7 8 8 9 11 11 8 6 4 2 2 1 0 0 0 1 2 3 5 7 8 8 7 6 6 6 6 5 4
0 0 0 0 0 0 0 0 1 1 1 4 8 9 7 5 3 1 1 3 3 4 5 8 13 15 13 10 7 4 2 1 1 1 1 3 4 4 4 6 8 8 7 7 7 8 8 7 5
0 0 0 0 0 0 0 0 1 1 1 2 6 10 10 8 6 3 1 1 1 3 5 7 12 15 14 12 9 6 4 3 4 4 3 3 5 4 3 4 7 8 8 9 10 11 9 7 6
0 0 0 0 0 0 0 1 2 2 3 2 4 9 12 11 9 6 5 4 4 6 8 10 13 14 13 12 11 9 6 5 6 5 3 2 3 4 3 3 5 7 9 12 13 13 10 7 7
0 0 0 0 0 0 0 1 2 2 3 3 3 7 12 14 11 9 8 8 8 9 12 14 14 13 12 12 12 11 8 5 4 3 2 1 1 3 4 5 5 7 10 13 14 14 10 7 7
0 0 0 0 0 0 0 1 1 2 3 4 5 8 14 17 13 8 7 8 9 9 11 13 14 13 13 13 13 13 10 7 4 4 4 4 4 5 7 9 9 10 11 13 14 13 10 8 6
0 0 0 0 0 0 0 1 1 2 5 8 11 13 15 17 14 8 6 6 7 8 8 11 14 14 14 14 14 14 13 11 9 10 11 11 11 11 12 13 12 11 13 14 14 13 11 8 7
0 0 0 0 0 0 0 1 1 2 5 11 15 16 16 17 16 12 9 8 9 9 9 11 14 17 17 17 17 17 17 17 17 17 18 18 17 17 17 16 14 13 14 15 15 14 11 9 8
0 0 0 0 0 0 1 1 1 2 5 11 16 17 17 18 19 17 14 12 13 12 11 13 16 18 20 20 19 20 21 22 22 22 21 21 20 20 19 19 17 14 14 16 16 14 11 10 10

GEFSSGP_con_prob3kmehi_240.txt.gz
EHI
7 16 31 37 23 6 0 0 0 0 0 0 0 0 0 0 0 0 0 0 1 1 1 1 1 0 0 0 0 0 0 0 0 0 0 0 0 0 0 0 0 0 0 1 2 4 4 3 1
8 18 31 28 13 3 0 0 0 0 0 0 0 0 0 0 0 0 0 0 0 1 1 2 2 1 1 0 0 0 0 0 0 0 0 0 0 1 1 0 0 0 0 0 1 3 3 2 1
14 22 26 16 4 0 0 0 0 0 0 0 0 0 0 0 0 0 0 0 0 1 2 4 4 3 2 1 0 0 0 0 0 0 0 1 1 1 1 0 0 0 0 0 1 2 2 1 0
26 27 19 7 1 0 0 0 0 0 0 0 0 0 0 0 0 0 0 0 0 2 4 5 5 4 2 1 0 0 0 0 0 0 0 0 0 1 1 0 0 0 0 0 0 1 2 1 0
33 24 11 2 0 0 0 0 0 0 0 0 0 0 0 0 0 0 0 0 0 2 6 8 7 5 3 1 0 0 0 0 0 0 0 0 0 0 0 0 0 0 0 0 0 1 1 1 0
25 14 3 0 0 0 0 0 0 0 0 0 0 0 0 0 0 0 0 0 0 2 6 8 8 6 4 2 1 0 0 0 0 0 0 0 0 0 0 0 0 0 0 0 1 1 1 1 1
13 6 1 0 0 0 0 0 0 0 0 0 0 0 0 0 0 0 0 1 0 1 3 4 4 5 4 3 1 0 0 0 0 0 0 0 0 1 1 1 1 1 1 1 2 2 2 2 2
3 2 0 0 0 0 0 0 0 0 0 0 0 0 0 0 0 0 0 1 1 0 0 1 1 3 4 3 2 1 1 1 1 0 1 1 1 2 2 2 2 2 2 3 3 4 3 3 3
0 0 0 0 0 0 0 0 0 0 0 0 0 0 0 0 0 0 0 1 2 1 0 0 0 1 3 3 3 2 2 2 1 1 2 2 2 2 2 3 4 4 3 3 4 4 4 3 3
0 0 0 0 0 0 0 0 0 0 0 0 0 0 0 1 1 1 1 2 3 2 1 0 0 0 2 3 3 3 3 3 2 2 3 4 3 2 2 3 5 4 4 3 4 4 4 3 3
0 0 0 0 0 0 0 0 0 0 0 0 0 0 1 2 3 2 1 2 3 2 1 0 0 1 3 3 2 4 3 2 2 2 4 4 3 2 2 2 4 4 4 4 4 4 3 3 3
0 0 0 0 0 0 0 0 0 1 1 1 1 1 2 3 3 2 1 2 3 1 1 1 2 4 6 5 3 3 2 1 1 2 3 3 3 3 3 3 3 3 4 3 3 3 3 3 4
0 0 0 0 0 0 0 0 0 1 2 2 2 2 3 3 2 2 1 2 3 2 2 4 5 6 6 7 6 3 1 1 2 2 2 2 3 3 3 3 3 3 3 3 3 3 3 4 5
0 0 0 0 0 0 0 0 1 2 3 3 3 3 3 3 3 2 2 3 4 4 5 6 6 5 5 6 7 4 2 2 2 2 1 1 3 3 3 3 3 3 3 4 4 3 3 4 4
0 0 0 0 0 0 0 1 2 3 3 4 3 3 3 3 3 2 3 4 6 7 7 5 4 5 4 5 5 3 1 1 2 2 1 1 2 3 3 3 3 3 4 5 4 2 1 2 2
0 0 0 0 0 0 1 2 2 2 3 4 3 3 3 3 2 1 3 7 10 12 10 5 3 4 5 4 4 3 2 1 3 3 2 2 1 2 3 3 3 4 4 4 2 1 1 1 2
0 0 0 0 0 0 1 2 2 2 2 4 5 4 3 2 1 0 2 8 14 18 16 9 3 4 6 5 4 4 3 3 4 3 4 5 3 2 3 3 3 4 2 1 1 1 1 2 3
0 0 0 0 0 0 1 2 2 1 1 4 7 8 7 5 3 2 3 8 18 24 23 15 9 6 5 5 5 6 6 5 4 3 5 6 5 4 4 3 3 3 1 0 0 0 1 2 3
0 0 0 0 0 1 2 3 3 2 2 4 7 11 12 10 9 8 8 12 22 31 31 24 18 13 7 4 5 7 7 5 5 5 7 8 7 6 6 5 4 3 3 2 1 1 1 2 3
0 0 0 0 0 2 3 4 4 3 3 3 6 11 13 14 17 18 17 20 30 38 38 31 26 20 12 5 5 7 7 5 5 9 12 12 10 9 8 7 6 5 6 7 7 5 5 5 4
0 0 0 0 0 1 2 3 3 4 4 3 5 10 12 15 23 26 24 26 35 43 40 33 30 26 17 10 7 7 8 7 7 13 18 17 15 13 10 9 9 8 9 11 13 12 11 9 7
0 0 0 0 0 0 1 2 4 5 4 2 4 8 10 15 24 29 29 30 36 40 37 35 34 31 23 14 8 8 11 10 9 13 20 20 18 15 13 11 11 11 10 12 15 17 16 13 10
0 0 0 0 0 0 0 1 5 6 4 3 4 7 10 15 23 30 32 33 33 33 34 37 38 34 27 19 12 10 11 10 9 14 20 20 18 17 16 15 15 14 12 14 16 19 19 16 12
0 0 0 0 0 0 0 1 4 5 4 5 6 7 11 15 21 29 35 35 31 30 34 40 42 39 31 23 17 14 13 10 10 15 19 19 19 22 24 24 23 19 17 18 19 20 20 18 16
0 0 0 0 0 0 0 1 2 3 3 5 8 8 11 16 22 32 40 39 35 33 37 45 48 44 37 28 22 20 18 13 11 13 16 16 19 25 30 32 30 25 21 20 21 20 20 18 17
0 0 0 0 0 0 1 3 3 2 3 4 8 9 12 17 24 34 41 42 40 38 42 49 52 48 41 33 27 25 23 16 11 12 12 12 15 22 30 34 32 28 23 22 22 20 18 17 17
0 0 0 0 0 0 2 4 5 4 4 6 9 13 15 19 26 32 36 38 39 40 45 51 53 49 43 38 32 28 25 18 15 18 18 15 15 20 28 33 34 30 25 25 24 20 17 17 18
0 0 0 0 0 0 2 3 4 5 7 9 13 16 19 24 28 30 31 33 35 39 42 47 51 50 46 42 36 31 28 24 23 26 27 25 24 25 30 36 36 32 27 26 25 22 18 19 20
0 0 0 0 0 0 1 3 4 5 9 11 15 20 24 28 32 33 30 31 34 36 38 42 47 48 46 44 40 36 34 32 30 31 33 33 32 33 36 38 37 34 30 28 26 22 20 21 22
0 0 0 0 0 0 1 2 4 6 9 12 16 22 27 31 34 35 33 33 34 34 35 40 43 46 46 44 42 41 39 37 34 33 35 36 36 38 39 39 36 34 33 31 26 21 20 22 24